FW0527 Weather Reports


Display with metric or nautical units.
time (UTC)temp
F
wind
direction
speed
MPH
gust
MPH
rain 1hr
in
rain 24hr
in
rain mn
in
humidity
%
barometer
mb
20260507213010 79 254 0.0 14.0 0.00 0.00 0.00 35 1014.1
20260507211506 79 302 1.0 11.0 0.00 0.00 0.00 34 1014.3
20260507210103 80 311 0.0 10.0 0.00 0.00 0.00 34 1014.5
20260507204502 80 315 0.0 3.0 0.00 0.00 0.00 33 1014.8
20260507203102 80 305 0.0 3.0 0.00 0.00 0.00 31 1014.8
20260507201601 81 317 1.0 12.0 0.00 0.00 0.00 29 1014.8
20260507200109 81 315 0.0 8.0 0.00 0.00 0.00 31 1014.8
20260507194556 82 293 0.0 8.0 0.00 0.00 0.00 32 1014.8
20260507193054 83 302 0.0 11.0 0.00 0.00 0.00 31 1015.0
20260507191555 83 305 0.0 0.0 0.00 0.00 0.00 27 1015.2
20260507190053 83 234 0.0 0.0 0.00 0.00 0.00 27 1015.5
20260507184550 83 101 0.0 9.0 0.00 0.00 0.00 20 1015.7
20260507183145 82 261 0.0 0.0 0.00 0.00 0.00 21 1015.7
20260507181543 82 101 0.0 4.0 0.00 0.00 0.00 23 1016.0
20260507180041 80 5 0.0 0.0 0.00 0.00 0.00 23 1016.1
20260507174546 81 82 0.0 0.0 0.00 0.00 0.00 21 1016.1
20260507173037 80 167 0.0 0.0 0.00 0.00 0.00 23 1016.0
20260507171537 79 355 0.0 1.0 0.00 0.00 0.00 24 1016.2
20260507170042 79 355 0.0 8.0 0.00 0.00 0.00 26 1016.2
20260507164532 78 130 0.0 0.0 0.00 0.00 0.00 28 1016.2
20260507163024 76 48 0.0 1.0 0.00 0.00 0.00 31 1016.3
20260507161520 72 97 0.0 8.0 0.00 0.00 0.00 34 1016.3
20260507160017 67 135 0.0 2.0 0.00 0.00 0.00 43 1016.3
20260507154512 61 105 0.0 0.0 0.00 0.00 0.00 60 1016.4
20260507153009 57 321 0.0 0.0 0.00 0.00 0.00 76 1016.4
20260507151501 54 321 0.0 0.0 0.00 0.00 0.00 80 1016.4
20260507150058 53 113 0.0 0.0 0.00 0.00 0.00 82 1016.4
20260507144554 51 113 0.0 0.0 0.00 0.00 0.00 82 1016.4
20260507143050 49 113 0.0 0.0 0.00 0.00 0.00 81 1016.4
20260507141547 48 113 0.0 0.0 0.00 0.00 0.00 79 1016.3
20260507140048 47 113 0.0 0.0 0.00 0.00 0.00 80 1016.4
20260507134544 46 112 0.0 0.0 0.00 0.00 0.00 80 1016.3
20260507133044 46 112 0.0 0.0 0.00 0.00 0.00 80 1016.2
20260507131554 46 112 0.0 0.0 0.00 0.00 0.00 79 1016.2
20260507130050 46 112 0.0 0.0 0.00 0.00 0.00 79 1016.3
20260507124547 46 112 0.0 0.0 0.00 0.01 0.00 80 1016.1
20260507123041 46 112 0.0 0.0 0.00 0.01 0.00 81 1016.0
20260507121539 45 112 0.0 0.0 0.00 0.01 0.00 81 1016.0
20260507120042 45 112 0.0 0.0 0.00 0.01 0.00 82 1016.0
20260507114537 45 112 0.0 0.0 0.00 0.01 0.00 82 1016.0
20260507113034 45 112 0.0 0.0 0.00 0.01 0.00 83 1016.0
20260507111533 46 112 0.0 0.0 0.00 0.01 0.00 83 1016.0
20260507110031 45 112 0.0 0.0 0.00 0.01 0.00 83 1016.1
20260507104530 46 112 0.0 0.0 0.00 0.01 0.00 83 1016.1
20260507103028 46 112 0.0 0.0 0.00 0.01 0.00 83 1016.4
20260507101527 46 112 0.0 0.0 0.00 0.01 0.00 82 1016.4
20260507100033 46 112 0.0 0.0 0.00 0.01 0.00 84 1016.5
20260507094523 46 112 0.0 0.0 0.00 0.01 0.00 84 1016.6
20260507093023 46 112 0.0 0.0 0.00 0.01 0.00 84 1016.7
20260507091522 46 112 0.0 0.0 0.00 0.01 0.00 84 1016.6
20260507090023 46 112 0.0 0.0 0.00 0.01 0.00 84 1016.7
20260507084519 47 112 0.0 0.0 0.00 0.01 0.00 84 1016.9
20260507083018 47 112 0.0 0.0 0.00 0.01 0.00 85 1017.0
20260507081532 47 112 0.0 0.0 0.00 0.01 0.00 86 1017.0
20260507080014 47 112 0.0 0.0 0.00 0.01 0.00 86 1017.2
20260507074523 47 112 0.0 0.0 0.00 0.01 0.00 87 1017.1
20260507073013 47 112 0.0 0.0 0.00 0.01 0.00 87 1017.2
20260507071511 47 112 0.0 0.0 0.00 0.01 0.00 86 1017.3
20260507070017 47 112 0.0 0.0 0.00 0.01 0.00 86 1017.3
20260507064509 48 112 0.0 0.0 0.00 0.01 0.01 86 1017.4
20260507063016 48 112 0.0 0.0 0.00 0.01 0.01 86 1017.4
20260507061508 48 112 0.0 0.0 0.00 0.01 0.01 86 1017.3
20260507060008 49 112 0.0 0.0 0.00 0.01 0.01 86 1017.6
20260507054507 49 222 0.0 0.0 0.00 0.01 0.01 86 1017.6
20260507053007 49 305 0.0 0.0 0.00 0.01 0.01 85 1017.7
20260507051506 49 305 0.0 0.0 0.00 0.01 0.01 84 1017.6
20260507050013 50 305 0.0 0.0 0.00 0.01 0.01 84 1017.6
20260507044604 51 305 0.0 0.0 0.00 0.01 0.01 83 1017.6
20260507043004 51 305 0.0 0.0 0.00 0.01 0.01 81 1017.6
20260507041503 52 305 0.0 0.0 0.00 0.01 0.01 80 1017.6
20260507040005 53 305 0.0 0.0 0.00 0.01 0.01 79 1017.6
20260507034501 54 305 0.0 0.0 0.00 0.01 0.01 78 1017.5
20260507033004 55 305 0.0 0.0 0.00 0.01 0.01 76 1017.5
20260507031501 56 305 0.0 0.0 0.00 0.01 0.01 75 1017.4
20260507030101 57 305 0.0 0.0 0.00 0.01 0.01 75 1017.4
20260507024600 58 305 0.0 0.0 0.00 0.01 0.01 74 1017.1
20260507023107 59 305 0.0 0.0 0.00 0.01 0.01 73 1017.0
20260507021602 59 303 0.0 0.0 0.00 0.01 0.01 72 1017.1
20260507020100 60 302 0.0 0.0 0.00 0.01 0.01 71 1017.1
20260507014605 61 310 0.0 6.0 0.00 0.01 0.01 69 1017.0
20260507013057 62 298 0.0 0.0 0.00 0.01 0.01 68 1016.9
20260507011557 62 306 0.0 0.0 0.00 0.01 0.01 67 1017.0
20260507004555 63 294 0.0 0.0 0.00 0.01 0.01 65 1016.9
20260507003054 64 313 0.0 7.0 0.00 0.01 0.01 64 1016.8
20260507001602 64 310 0.0 1.0 0.00 0.01 0.01 63 1016.8
20260507000053 65 294 0.0 6.0 0.00 0.01 0.01 62 1016.8
20260506234553 65 314 0.0 8.0 0.00 0.01 0.01 60 1016.7
20260506233109 65 311 0.0 9.0 0.00 0.01 0.01 60 1016.7
20260506231551 66 286 0.0 8.0 0.00 0.01 0.01 59 1016.7
20260506230051 66 280 0.0 9.0 0.00 0.01 0.01 56 1016.8
20260506224550 67 288 0.0 10.0 0.00 0.01 0.01 55 1016.8
20260506223048 67 339 0.0 6.0 0.00 0.01 0.01 52 1016.9
20260506221547 68 279 0.0 12.0 0.00 0.01 0.01 50 1017.1
20260506220046 68 297 0.0 5.0 0.00 0.01 0.01 49 1017.2
20260506214545 69 248 0.0 7.0 0.00 0.01 0.01 49 1017.4